GW6471 Weather Reports


Display with metric or nautical units.
time (UTC)temp
F
wind
direction
speed
MPH
gust
MPH
rain 1hr
in
rain 24hr
in
rain mn
in
humidity
%
barometer
mb
20260509123929 55 203 2.0 2.0 0.00 0.00 0.00 70 999.9
20260509123426 54 176 0.0 0.0 0.00 0.00 0.00 71 999.9
20260509122922 54 199 1.0 2.0 0.00 0.00 0.00 72 999.6
20260509122419 54 214 1.0 1.0 0.00 0.00 0.00 72 999.8
20260509121915 54 188 1.0 1.0 0.00 0.00 0.00 72 999.7
20260509121413 53 196 1.0 1.0 0.00 0.00 0.00 72 1000.0
20260509120911 53 196 1.0 1.0 0.00 0.00 0.00 73 1000.1
20260509120408 52 191 0.0 1.0 0.00 0.00 0.00 72 999.4
20260509115906 52 191 0.0 1.0 0.00 0.00 0.00 72 999.4
20260509115403 52 187 0.0 0.0 0.00 0.00 0.00 72 1000.0
20260509114901 52 203 0.0 1.0 0.00 0.00 0.00 72 999.9
20260509114359 51 210 0.0 0.0 0.00 0.00 0.00 72 999.9
20260509113858 51 213 0.0 0.0 0.00 0.00 0.00 70 1000.0
20260509113355 51 215 1.0 2.0 0.00 0.00 0.00 70 999.9
20260509112851 51 205 0.0 0.0 0.00 0.00 0.00 70 999.9
20260509112348 51 216 0.0 0.0 0.00 0.00 0.00 68 999.9
20260509111846 51 160 0.0 0.0 0.00 0.00 0.00 68 999.9
20260509111342 51 214 0.0 1.0 0.00 0.00 0.00 68 999.9
20260509110840 51 208 0.0 1.0 0.00 0.00 0.00 67 999.8
20260509110336 51 196 0.0 0.0 0.00 0.00 0.00 67 999.8
20260509105835 51 201 0.0 0.0 0.00 0.00 0.00 67 999.8
20260509105332 51 211 1.0 1.0 0.00 0.00 0.00 67 999.8
20260509104829 51 180 0.0 0.0 0.00 0.00 0.00 67 999.7
20260509104325 51 196 0.0 0.0 0.00 0.00 0.00 66 999.8
20260509103823 51 241 1.0 2.0 0.00 0.00 0.00 66 999.8
20260509103320 51 202 0.0 1.0 0.00 0.00 0.00 66 1000.2
20260509102820 51 212 1.0 1.0 0.00 0.00 0.00 66 1000.3
20260509102316 51 210 1.0 1.0 0.00 0.00 0.00 66 1000.3
20260509101812 52 219 1.0 2.0 0.00 0.00 0.00 64 1000.5
20260509101308 52 215 1.0 1.0 0.00 0.00 0.00 64 1000.5
20260509100806 52 202 0.0 0.0 0.00 0.00 0.00 64 1000.3
20260509100303 53 201 1.0 1.0 0.00 0.00 0.00 63 1000.2
20260509095759 53 206 1.0 1.0 0.00 0.00 0.00 62 1000.3
20260509095257 53 191 0.0 0.0 0.00 0.00 0.00 63 1000.3
20260509094754 54 187 0.0 1.0 0.00 0.00 0.00 62 1000.5
20260509094250 54 202 0.0 1.0 0.00 0.00 0.00 62 1000.5
20260509093748 54 211 1.0 1.0 0.00 0.00 0.00 62 1000.7
20260509093245 54 176 0.0 1.0 0.00 0.00 0.00 61 1000.6
20260509092744 54 198 0.0 0.0 0.00 0.00 0.00 61 1000.8
20260509092241 53 204 0.0 1.0 0.00 0.00 0.00 61 1000.7
20260509091739 53 180 0.0 1.0 0.00 0.00 0.00 60 1000.5
20260509091235 53 247 1.0 1.0 0.00 0.00 0.00 58 1000.6
20260509090733 52 175 0.0 0.0 0.00 0.00 0.00 58 1000.7
20260509090230 52 192 0.0 1.0 0.00 0.00 0.00 58 1000.8
20260509085728 51 197 0.0 0.0 0.00 0.00 0.00 58 1000.8
20260509085225 51 197 0.0 1.0 0.00 0.00 0.00 57 1000.9
20260509084721 51 197 0.0 1.0 0.00 0.00 0.00 57 1000.9
20260509084218 51 198 0.0 0.0 0.00 0.00 0.00 56 1001.1
20260509083716 51 198 0.0 0.0 0.00 0.00 0.00 56 1001.3
20260509083212 52 196 0.0 0.0 0.00 0.00 0.00 55 1001.3
20260509082709 52 204 0.0 0.0 0.00 0.00 0.00 54 1001.3
20260509082206 52 187 0.0 0.0 0.00 0.00 0.00 53 1001.4
20260509081702 52 195 0.0 0.0 0.00 0.00 0.00 52 1001.7
20260509081200 52 208 1.0 1.0 0.00 0.00 0.00 52 1001.7
20260509080658 52 92 0.0 1.0 0.00 0.00 0.00 50 1001.7
20260509080155 52 195 0.0 0.0 0.00 0.00 0.00 48 1001.7
20260509075654 52 195 1.0 1.0 0.00 0.00 0.00 47 1002.0
20260509075151 52 212 0.0 1.0 0.00 0.00 0.00 47 1001.9
20260509074648 52 154 1.0 1.0 0.00 0.00 0.00 45 1001.9
20260509074144 53 179 0.0 0.0 0.00 0.00 0.00 43 1002.0
20260509073641 52 211 0.0 0.0 0.00 0.00 0.00 41 1001.9
20260509073137 52 161 0.0 0.0 0.00 0.00 0.00 41 1002.1
20260509072634 52 196 1.0 1.0 0.00 0.00 0.00 40 1002.2
20260509072131 52 189 0.0 0.0 0.00 0.00 0.00 39 1002.5
20260509071628 52 189 0.0 0.0 0.00 0.00 0.00 39 1002.6
20260509071125 52 214 0.0 0.0 0.00 0.00 0.00 40 1002.6
20260509070622 53 190 0.0 0.0 0.00 0.00 0.00 38 1002.8
20260509070118 53 190 0.0 0.0 0.00 0.00 0.00 36 1003.0
20260509065614 54 232 0.0 1.0 0.00 0.00 0.00 33 1003.1
20260509065110 54 168 0.0 0.0 0.00 0.00 0.00 35 1003.2
20260509064608 54 213 0.0 0.0 0.00 0.00 0.00 34 1003.4
20260509064106 54 215 0.0 0.0 0.00 0.00 0.00 36 1003.4
20260509063602 53 205 1.0 1.0 0.00 0.00 0.00 35 1003.5
20260509063059 53 205 0.0 1.0 0.00 0.00 0.00 40 1003.6
20260509062555 53 200 0.0 0.0 0.00 0.00 0.00 42 1003.6
20260509062053 53 200 0.0 0.0 0.00 0.00 0.00 36 1003.5
20260509061550 54 164 0.0 0.0 0.00 0.00 0.00 38 1003.8
20260509061047 54 164 0.0 0.0 0.00 0.00 0.00 37 1004.1
20260509060545 54 198 0.0 0.0 0.00 0.00 0.00 37 1004.1
20260509060040 54 239 2.0 2.0 0.00 0.00 0.00 37 1004.0
20260509055536 54 171 0.0 0.0 0.00 0.00 0.00 38 1004.2
20260509055032 54 171 0.0 0.0 0.00 0.00 0.00 38 1004.0
20260509054529 54 163 0.0 0.0 0.00 0.00 0.00 38 1004.1
20260509054027 54 197 0.0 1.0 0.00 0.00 0.00 36 1004.1
20260509053525 54 171 1.0 2.0 0.00 0.00 0.00 36 1004.2
20260509053022 54 198 0.0 0.0 0.00 0.00 0.00 37 1004.2
20260509052519 54 199 0.0 1.0 0.00 0.00 0.00 36 1004.2
20260509052017 54 190 0.0 0.0 0.00 0.00 0.00 36 1004.2
20260509051515 55 211 0.0 0.0 0.00 0.00 0.00 36 1004.3
20260509051012 54 223 0.0 1.0 0.00 0.00 0.00 34 1004.2
20260509050508 54 165 0.0 1.0 0.00 0.00 0.00 36 1004.3
20260509050005 53 195 0.0 0.0 0.00 0.00 0.00 39 1004.5
20260509045502 53 196 0.0 1.0 0.00 0.00 0.00 37 1004.7
20260509044959 53 201 0.0 0.0 0.00 0.00 0.00 40 1004.7
20260509044457 53 203 0.0 1.0 0.00 0.00 0.00 37 1004.8
20260509043954 53 196 0.0 1.0 0.00 0.00 0.00 41 1004.9
20260509043449 53 182 0.0 0.0 0.00 0.00 0.00 42 1005.0
20260509042945 53 182 0.0 0.0 0.00 0.00 0.00 44 1005.2
20260509042443 54 182 0.0 0.0 0.00 0.00 0.00 42 1005.1
20260509041938 54 181 0.0 0.0 0.00 0.00 0.00 38 1005.2
20260509041435 55 207 0.0 0.0 0.00 0.00 0.00 37 1005.4
20260509040934 55 173 0.0 1.0 0.00 0.00 0.00 38 1005.5
20260509040432 55 164 0.0 0.0 0.00 0.00 0.00 38 1005.6
20260509035928 55 177 0.0 0.0 0.00 0.00 0.00 38 1005.6
20260509035425 55 158 0.0 0.0 0.00 0.00 0.00 36 1005.6
20260509034921 54 200 0.0 1.0 0.00 0.00 0.00 40 1005.8
20260509034419 55 174 0.0 0.0 0.00 0.00 0.00 40 1005.8
20260509033916 55 201 0.0 0.0 0.00 0.00 0.00 39 1005.7
20260509033413 55 207 0.0 0.0 0.00 0.00 0.00 38 1005.7
20260509032909 54 199 0.0 0.0 0.00 0.00 0.00 40 1005.8
20260509032407 55 198 0.0 0.0 0.00 0.00 0.00 39 1005.7
20260509031905 55 198 0.0 0.0 0.00 0.00 0.00 36 1005.8
20260509031402 55 198 0.0 0.0 0.00 0.00 0.00 39 1005.7
20260509030859 55 194 0.0 1.0 0.00 0.00 0.00 35 1005.8
20260509030357 55 205 0.0 0.0 0.00 0.00 0.00 39 1005.8
20260509025854 55 16 0.0 1.0 0.00 0.00 0.00 38 1005.8
20260509025349 56 203 0.0 0.0 0.00 0.00 0.00 36 1005.9
20260509024845 55 177 0.0 0.0 0.00 0.00 0.00 36 1005.9
20260509024341 55 224 1.0 1.0 0.00 0.00 0.00 37 1005.9
20260509023838 55 233 3.0 3.0 0.00 0.00 0.00 36 1006.0
20260509023336 55 224 0.0 0.0 0.00 0.00 0.00 40 1006.0
20260509022832 55 231 0.0 0.0 0.00 0.00 0.00 37 1005.9
20260509022330 55 232 0.0 0.0 0.00 0.00 0.00 37 1006.0
20260509021826 55 186 1.0 1.0 0.00 0.00 0.00 37 1005.8
20260509021323 55 182 0.0 0.0 0.00 0.00 0.00 37 1006.1
20260509020821 55 173 0.0 0.0 0.00 0.00 0.00 38 1006.0
20260509020319 55 188 0.0 0.0 0.00 0.00 0.00 41 1006.1
20260509015816 55 187 0.0 0.0 0.00 0.00 0.00 38 1006.0
20260509015314 55 187 0.0 0.0 0.00 0.00 0.00 41 1005.9
20260509014811 55 164 0.0 1.0 0.00 0.00 0.00 39 1005.9
20260509014308 56 179 0.0 0.0 0.00 0.00 0.00 39 1006.0
20260509013804 56 179 0.0 0.0 0.00 0.00 0.00 37 1006.0
20260509013300 56 178 0.0 0.0 0.00 0.00 0.00 37 1006.0
20260509012756 57 151 0.0 0.0 0.00 0.00 0.00 35 1005.9
20260509012254 57 192 0.0 1.0 0.00 0.00 0.00 34 1005.8
20260509011751 57 198 0.0 0.0 0.00 0.00 0.00 34 1006.0
20260509011248 57 146 0.0 0.0 0.00 0.00 0.00 35 1005.9
20260509010746 58 174 0.0 0.0 0.00 0.00 0.00 37 1006.2
20260509010243 58 173 0.0 0.0 0.00 0.00 0.00 34 1006.2
20260509005741 58 95 0.0 1.0 0.00 0.00 0.00 32 1006.1
20260509005238 58 200 0.0 1.0 0.00 0.00 0.00 33 1006.0
20260509004737 58 173 0.0 0.0 0.00 0.00 0.00 32 1005.9
20260509004235 58 204 0.0 0.0 0.00 0.00 0.00 33 1006.0
20260509003733 59 204 0.0 0.0 0.00 0.00 0.00 33 1005.9
20260509003230 59 204 0.0 0.0 0.00 0.00 0.00 35 1006.0
20260509002727 59 202 0.0 1.0 0.00 0.00 0.00 31 1006.0
20260509002225 59 223 0.0 0.0 0.00 0.00 0.00 32 1005.9
20260509001722 59 171 0.0 0.0 0.00 0.00 0.00 32 1006.0
20260509001218 59 228 1.0 1.0 0.00 0.00 0.00 32 1006.0
20260509000716 59 212 0.0 1.0 0.00 0.00 0.00 31 1005.8
20260509000213 59 200 0.0 1.0 0.00 0.00 0.00 32 1006.1
20260508235710 59 210 0.0 0.0 0.00 0.00 0.00 32 1006.1
20260508235206 59 190 0.0 0.0 0.00 0.00 0.00 32 1006.2
20260508234704 60 189 0.0 0.0 0.00 0.00 0.00 33 1006.0
20260508234200 60 197 0.0 0.0 0.00 0.00 0.00 31 1006.2
20260508233700 60 271 2.0 3.0 0.00 0.00 0.00 31 1006.3
20260508233157 60 254 3.0 3.0 0.00 0.00 0.00 30 1006.1
20260508232654 60 197 1.0 2.0 0.00 0.00 0.00 31 1006.3
20260508232150 60 214 0.0 1.0 0.00 0.00 0.00 30 1006.2
20260508231649 60 198 1.0 3.0 0.00 0.00 0.00 30 1006.3
20260508231145 60 152 0.0 1.0 0.00 0.00 0.00 31 1006.3
20260508230642 60 235 1.0 2.0 0.00 0.00 0.00 30 1006.3
20260508230138 61 187 0.0 1.0 0.00 0.00 0.00 30 1006.4
20260508225636 61 190 1.0 1.0 0.00 0.00 0.00 30 1006.2
20260508225132 61 350 2.0 3.0 0.00 0.00 0.00 30 1006.4
20260508224630 61 191 1.0 1.0 0.00 0.00 0.00 29 1006.3
20260508224128 61 220 1.0 2.0 0.00 0.00 0.00 29 1006.2
20260508223625 61 205 3.0 4.0 0.00 0.00 0.00 29 1006.2
20260508223122 62 178 0.0 1.0 0.00 0.00 0.00 29 1006.3
20260508222620 63 220 1.0 2.0 0.00 0.00 0.00 28 1006.3
20260508222117 63 202 0.0 0.0 0.00 0.00 0.00 28 1006.8
20260508221613 63 230 2.0 2.0 0.00 0.00 0.00 28 1006.4
20260508221108 62 197 1.0 1.0 0.00 0.00 0.00 28 1006.6
20260508220605 62 184 1.0 1.0 0.00 0.00 0.00 28 1006.6
20260508215559 63 108 2.0 3.0 0.00 0.00 0.00 28 1006.8
20260508215055 63 219 1.0 2.0 0.00 0.00 0.00 27 1006.6
20260508214553 63 264 3.0 3.0 0.00 0.00 0.00 27 1006.6
20260508214049 64 137 2.0 3.0 0.00 0.00 0.00 29 1006.6
20260508213546 64 218 1.0 2.0 0.00 0.00 0.00 27 1006.6
20260508213042 63 230 2.0 2.0 0.00 0.00 0.00 27 1006.8
20260508212539 63 266 3.0 3.0 0.00 0.00 0.00 27 1006.6
20260508212035 63 192 1.0 2.0 0.00 0.00 0.00 27 1006.9
20260508211531 63 206 3.0 3.0 0.00 0.00 0.00 26 1006.9
20260508211027 63 257 3.0 4.0 0.00 0.00 0.00 29 1006.9
20260508210524 64 248 1.0 1.0 0.00 0.00 0.00 26 1006.9
20260508210022 64 244 3.0 6.0 0.00 0.00 0.00 26 1006.8
20260508205518 64 230 1.0 2.0 0.00 0.00 0.00 26 1007.0
20260508205014 64 183 2.0 2.0 0.00 0.00 0.00 27 1007.0
20260508204512 64 54 3.0 3.0 0.00 0.00 0.00 25 1007.2
20260508204007 64 165 2.0 3.0 0.00 0.00 0.00 27 1007.0
20260508203503 64 121 1.0 1.0 0.00 0.00 0.00 26 1007.1
20260508202959 65 193 2.0 3.0 0.00 0.00 0.00 26 1007.2
20260508202456 64 244 2.0 2.0 0.00 0.00 0.00 26 1007.3
20260508201953 64 214 2.0 2.0 0.00 0.00 0.00 26 1007.3
20260508201450 64 265 4.0 6.0 0.00 0.00 0.00 26 1007.5
20260508200947 64 259 1.0 2.0 0.00 0.00 0.00 26 1007.3
20260508200444 64 307 5.0 7.0 0.00 0.00 0.00 26 1007.5
20260508195938 64 331 4.0 6.0 0.00 0.00 0.00 26 1007.6
20260508195436 62 195 3.0 4.0 0.00 0.00 0.00 27 1007.7
20260508194932 64 245 2.0 3.0 0.00 0.00 0.00 27 1007.8
20260508194430 64 290 2.0 2.0 0.00 0.00 0.00 25 1008.0
20260508193926 64 248 1.0 2.0 0.00 0.00 0.00 25 1007.8
20260508193424 63 216 2.0 2.0 0.00 0.00 0.00 27 1008.0
20260508192919 63 89 1.0 2.0 0.00 0.00 0.00 27 1008.1
20260508192417 63 279 2.0 2.0 0.00 0.00 0.00 26 1008.1
20260508191914 62 65 2.0 2.0 0.00 0.00 0.00 28 1008.1
20260508191411 62 249 4.0 6.0 0.00 0.00 0.00 28 1008.2
20260508190908 62 256 2.0 3.0 0.00 0.00 0.00 26 1008.3
20260508190405 62 297 3.0 4.0 0.00 0.00 0.00 27 1008.4
20260508185901 62 279 2.0 2.0 0.00 0.00 0.00 26 1008.3
20260508185359 62 138 1.0 1.0 0.00 0.00 0.00 27 1008.4
20260508184855 63 221 2.0 2.0 0.00 0.00 0.00 27 1008.4
20260508184353 61 209 4.0 4.0 0.00 0.00 0.00 27 1008.5
20260508183849 62 211 4.0 4.0 0.00 0.00 0.00 29 1008.5
20260508183346 62 245 2.0 3.0 0.00 0.00 0.00 28 1008.7
20260508182842 62 228 1.0 1.0 0.00 0.00 0.00 29 1008.6
20260508182339 61 178 2.0 3.0 0.00 0.00 0.00 28 1008.8
20260508181834 61 164 2.0 3.0 0.00 0.00 0.00 30 1008.9
20260508181331 61 345 3.0 4.0 0.00 0.00 0.00 28 1009.0
20260508180828 61 304 2.0 2.0 0.00 0.00 0.00 29 1009.0
20260508180325 60 248 2.0 3.0 0.00 0.00 0.00 30 1009.1
20260508175821 61 326 2.0 3.0 0.00 0.00 0.00 30 1009.0
20260508175318 62 202 2.0 3.0 0.00 0.00 0.00 29 1009.2
20260508174816 62 197 0.0 1.0 0.00 0.00 0.00 29 1009.1
20260508174313 61 181 3.0 4.0 0.00 0.00 0.00 32 1009.2
20260508173809 60 192 2.0 4.0 0.00 0.00 0.00 29 1009.4
20260508173307 60 299 3.0 4.0 0.00 0.00 0.00 30 1009.1
20260508172802 59 154 5.0 8.0 0.00 0.00 0.00 30 1009.5
20260508172300 61 179 6.0 8.0 0.00 0.00 0.00 29 1009.4
20260508171755 61 279 1.0 2.0 0.00 0.00 0.00 31 1009.4
20260508171252 60 275 3.0 3.0 0.00 0.00 0.00 31 1009.5
20260508170749 60 113 1.0 1.0 0.00 0.00 0.00 30 1009.7
20260508170247 60 289 3.0 3.0 0.00 0.00 0.00 30 1009.5
20260508165744 60 237 3.0 3.0 0.00 0.00 0.00 30 1009.6
20260508165241 60 310 2.0 2.0 0.00 0.00 0.00 29 1009.7
20260508164737 60 261 4.0 6.0 0.00 0.00 0.00 29 1009.8
20260508164234 61 101 1.0 2.0 0.00 0.00 0.00 31 1009.8
20260508163732 60 155 2.0 3.0 0.00 0.00 0.00 31 1009.9
20260508163229 60 229 4.0 6.0 0.00 0.00 0.00 30 1010.0
20260508162725 60 227 7.0 8.0 0.00 0.00 0.00 32 1009.9
20260508162222 59 174 1.0 2.0 0.00 0.00 0.00 33 1010.0
20260508161719 59 251 4.0 6.0 0.00 0.00 0.00 32 1010.2
20260508161216 59 229 4.0 4.0 0.00 0.00 0.00 33 1010.0
20260508160714 58 132 2.0 3.0 0.00 0.00 0.00 34 1010.1
20260508160212 57 290 3.0 4.0 0.00 0.00 0.00 36 1010.2
20260508155708 58 199 0.0 1.0 0.00 0.00 0.00 35 1010.2
20260508155206 58 260 4.0 4.0 0.00 0.00 0.00 34 1010.3
20260508154703 59 207 2.0 2.0 0.00 0.00 0.00 35 1010.4
20260508154159 58 217 1.0 2.0 0.00 0.00 0.00 35 1010.2
20260508153656 57 282 4.0 4.0 0.00 0.00 0.00 36 1010.4
20260508153153 58 203 0.0 1.0 0.00 0.00 0.00 36 1010.5
20260508152650 58 207 1.0 1.0 0.00 0.00 0.00 37 1010.4
20260508152145 56 337 3.0 6.0 0.00 0.00 0.00 38 1010.5
20260508151642 56 207 2.0 2.0 0.00 0.00 0.00 38 1010.4
20260508151139 55 143 1.0 1.0 0.00 0.00 0.00 38 1010.6
20260508150636 55 180 2.0 3.0 0.00 0.00 0.00 39 1010.5
20260508150132 55 192 0.0 2.0 0.00 0.00 0.00 40 1010.6
20260508145628 54 141 1.0 1.0 0.00 0.00 0.00 41 1010.6
20260508145125 54 217 2.0 4.0 0.00 0.00 0.00 40 1010.6
20260508144623 54 224 0.0 0.0 0.00 0.00 0.00 41 1010.4
20260508144120 54 226 1.0 2.0 0.00 0.00 0.00 41 1010.6
20260508143617 54 244 2.0 3.0 0.00 0.00 0.00 41 1010.5
20260508143114 53 201 1.0 1.0 0.00 0.00 0.00 42 1010.7
20260508142610 53 252 2.0 2.0 0.00 0.00 0.00 43 1010.8
20260508142107 53 201 2.0 2.0 0.00 0.00 0.00 46 1010.8
20260508141604 52 298 3.0 4.0 0.00 0.00 0.00 46 1010.8
20260508141102 52 166 1.0 1.0 0.00 0.00 0.00 48 1010.8
20260508140558 52 234 2.0 3.0 0.00 0.00 0.00 49 1011.0
20260508140055 52 170 0.0 0.0 0.00 0.00 0.00 51 1010.8
20260508135550 51 193 0.0 0.0 0.00 0.00 0.00 52 1010.8
20260508135047 50 206 2.0 2.0 0.00 0.00 0.00 54 1011.0
20260508134544 50 196 0.0 1.0 0.00 0.00 0.00 55 1011.2
20260508134041 50 204 1.0 1.0 0.00 0.00 0.00 57 1011.1
20260508133537 49 207 1.0 1.0 0.00 0.00 0.00 56 1010.8
20260508133035 48 219 4.0 4.0 0.00 0.00 0.00 58 1011.2
20260508132533 48 183 2.0 2.0 0.00 0.00 0.00 59 1011.0
20260508132029 47 201 0.0 0.0 0.00 0.00 0.00 61 1011.0
20260508131524 46 212 1.0 1.0 0.00 0.00 0.00 62 1011.1
20260508131021 46 182 1.0 1.0 0.00 0.00 0.00 63 1011.1
20260508130519 45 207 3.0 4.0 0.00 0.00 0.00 64 1011.2
20260508130015 44 323 0.0 0.0 0.00 0.00 0.00 66 1011.4
20260508125511 44 203 1.0 2.0 0.00 0.00 0.00 68 1011.3
20260508125009 43 192 0.0 0.0 0.00 0.00 0.00 68 1011.4
20260508124506 43 246 1.0 1.0 0.00 0.00 0.00 70 1011.5